Location: McCloud Nature Park
(39.8272°N, 86.6824°W)
Time: 03:23:56
(UTC-05:00)

Amateur Radio Satellites - All Passes

Search period start: 24 September 2017 02:53
Search period end: 25 September 2017 02:53
Location: McCloud Nature Park, 39.8272°N, 86.6824°W

Satellite Date Start Highest point End Downlink Frequencies (MHz)
Time Altitude Azimuth
RS-15 24 Sep 03:03:37 03:07:42 12° 93° (E) 03:11:48 29.354- 29.394
ISS 24 Sep 03:04:15 03:07:31 60° 35° (NE) 03:10:46 437.550
BUGSAT 1 24 Sep 03:04:54 03:07:09 14° 295° (WNW) 03:09:25 437.445
BEESAT 24 Sep 03:24:30 03:29:15 75° 258° (WSW) 03:34:03 436.000
O/OREOS (USA 219) 24 Sep 03:24:46 03:28:36 27° 300° (WNW) 03:32:29 437.305
nSIGHT-1 24 Sep 03:43:05 03:46:15 47° 222° (SW) 03:49:22 .
AO-7 24 Sep 03:44:56 03:52:41 42° 100° (E) 04:00:24 .
MOZHAYETS 4 24 Sep 03:53:05 03:57:22 38° 262° (W) 04:01:42
ITAMSAT 1 24 Sep 03:55:33 04:00:24 38° 98° (E) 04:05:13 435.822/435.867
KKS-1 24 Sep 04:10:48 04:14:20 24° 67° (ENE) 04:17:52 437.445
Gurwin Techsat 1B 24 Sep 04:19:03 04:21:54 15° 299° (WNW) 04:24:46 435.225
CUBESAT XI-V 24 Sep 04:19:55 04:24:39 85° 74° (ENE) 04:29:21 437.345
BEESAT 3 24 Sep 04:25:54 04:29:51 59° 57° (ENE) 04:33:42 437.485
ITUPSAT 1 24 Sep 04:27:38 04:30:52 18° 267° (W) 04:34:09 437.325
BEESAT 2 24 Sep 04:34:32 04:37:54 24° 49° (NE) 04:41:14 435.950
STARS 24 Sep 04:34:39 04:37:31 18° 65° (ENE) 04:40:24 437.465
ISS 24 Sep 04:41:52 04:43:38 14° 230° (SW) 04:45:24 437.550
AO-85 24 Sep 05:04:48 05:09:11 55° 56° (NE) 05:13:54 145.980
RS-15 24 Sep 05:05:37 05:17:34 64° 113° (ESE) 05:29:38 29.354- 29.394
DOVE 4 24 Sep 05:34:06 05:38:01 35° 98° (E) 05:42:05 437.250
ITAMSAT 1 24 Sep 05:35:24 05:39:39 26° 294° (WNW) 05:43:53 435.822/435.867
AO-7 24 Sep 05:37:44 05:45:24 44° 298° (WNW) 05:53:03 .
KKS-1 24 Sep 05:46:50 05:50:44 30° 263° (W) 05:54:38 437.445
CUTE-I 24 Sep 05:48:49 05:51:12 13° 90° (E) 05:53:33 437.470
STRAND 1 24 Sep 06:03:20 06:06:06 15° 61° (ENE) 06:08:53 437.568
BEESAT 3 24 Sep 06:05:51 06:06:50 11° 252° (WSW) 06:07:49 437.485
STARS 24 Sep 06:09:25 06:13:31 41° 261° (W) 06:17:40 437.465
BEESAT 2 24 Sep 06:12:05 06:15:38 30° 246° (WSW) 06:19:07 435.950
XW-2D 24 Sep 06:18:28 06:21:47 28° 96° (E) 06:25:03 145.860 - 145.880
HO-68 24 Sep 06:28:57 06:32:26 14° 89° (E) 06:35:55 435.675
XW-2F 24 Sep 06:30:15 06:33:45 35° 98° (E) 06:37:13 145.980 - 146.000
XW-2B 24 Sep 06:30:38 06:34:13 37° 98° (E) 06:37:44 145.730 - 145.750
AO-85 24 Sep 06:46:22 06:49:15 17° 249° (WSW) 06:52:15 145.980
NUDT-PHONESAT 24 Sep 06:51:39 06:55:18 50° 99° (E) 06:58:54 437.300
XW-2C 24 Sep 06:51:50 06:55:40 75° 100° (E) 06:59:26 145.795 - 145.815
LilacSat-2 24 Sep 07:04:49 07:08:38 68° 284° (WNW) 07:12:25 437.200
SEEDS 24 Sep 07:10:43 07:12:41 13° 91° (E) 07:14:40 437.485
DOVE 4 24 Sep 07:12:26 07:15:30 20° 292° (WNW) 07:18:40 437.250
RS-15 24 Sep 07:19:06 07:30:41 45° 317° (NW) 07:42:18 29.354- 29.394
KAITUO 1B 24 Sep 07:21:02 07:24:44 61° 285° (WNW) 07:28:23 145.475/437.950
CUTE-I 24 Sep 07:26:25 07:31:45 74° 286° (WNW) 07:37:04 437.470
CUTE 1.7 + AOD 2 24 Sep 07:38:09 07:42:13 46° 99° (E) 07:46:15 437.475
STRAND 1 24 Sep 07:39:37 07:44:41 69° 258° (WSW) 07:49:47 437.568
XW-2D 24 Sep 07:53:03 07:55:45 19° 292° (WNW) 07:58:25 145.860 - 145.880
XW-2F 24 Sep 08:05:21 08:07:33 15° 293° (WNW) 08:09:44 145.980 - 146.000
XW-2B 24 Sep 08:05:57 08:08:02 14° 294° (WNW) 08:10:06 145.730 - 145.750
CUBEBUG 2 24 Sep 08:13:01 08:17:44 65° 101° (E) 08:22:26 437.445
HO-68 24 Sep 08:13:49 08:21:03 86° 107° (ESE) 08:28:16 435.675
FO-29 24 Sep 08:15:00 08:19:52 31° 68° (ENE) 08:24:27 435.910
UWE-3 24 Sep 08:18:50 08:23:18 43° 98° (E) 08:27:44 435.000/436.395/437.385
NUDT-PHONESAT 24 Sep 08:27:45 08:28:41 11° 295° (WNW) 08:29:38 437.300
XW-2A 24 Sep 08:30:02 08:33:28 85° 99° (E) 08:36:52 145.665 - 145.685
TIGRISAT 24 Sep 08:34:14 08:35:25 11° 62° (ENE) 08:36:36 435.000
SEEDS 24 Sep 08:44:36 08:48:38 47° 287° (WNW) 08:52:37 437.485
PRISM 24 Sep 08:57:24 08:58:07 10° 63° (ENE) 08:58:50 437.425
Oscar 11 24 Sep 09:00:20 09:04:24 38° 98° (E) 09:08:26 .
AO-73 24 Sep 09:01:45 09:06:18 60° 100° (E) 09:10:47 145.935
ZACube-1 24 Sep 09:04:58 09:09:35 74° 102° (ESE) 09:14:08 437.345
AAUSAT CUBESAT 2 24 Sep 09:05:16 09:09:20 63° 285° (WNW) 09:13:23 437.432
CUTE 1.7 + AOD 2 24 Sep 09:15:14 09:17:38 15° 295° (WNW) 09:20:02 437.475
RS-15 24 Sep 09:38:55 09:47:41 21° 349° (N) 09:56:18 29.354- 29.394
UNISAT 6 24 Sep 09:43:37 09:47:55 69° 75° (ENE) 09:52:21 437.425
Max Valier Satellite 24 Sep 09:48:54 09:51:43 20° 94° (E) 09:54:30 145.860
CUBEBUG 2 24 Sep 09:51:25 09:53:46 14° 296° (WNW) 09:56:08 437.445
UWE-3 24 Sep 09:56:06 09:59:23 19° 294° (WNW) 10:02:42 435.000/436.395/437.385
FO-29 24 Sep 09:59:52 10:04:56 32° 262° (W) 10:09:41 435.910
HO-68 24 Sep 10:03:12 10:07:52 19° 304° (NW) 10:12:32 435.675
TIGRISAT 24 Sep 10:07:08 10:11:26 71° 259° (W) 10:15:53 435.000
DELFI C3 24 Sep 10:27:23 10:31:19 88° 103° (ESE) 10:35:13 145.870
PRISM 24 Sep 10:28:46 10:32:49 66° 258° (WSW) 10:36:55 437.425
AIST 2D 24 Sep 10:32:13 10:34:59 21° 70° (ENE) 10:37:44 435.315
Oscar 11 24 Sep 10:37:14 10:40:13 18° 294° (WNW) 10:43:12 .
AO-73 24 Sep 10:39:40 10:41:59 14° 296° (WNW) 10:44:17 145.935
ZACube-1 24 Sep 10:43:38 10:45:11 12° 298° (WNW) 10:46:44 437.345
QB50P2 24 Sep 10:43:39 10:46:07 15° 65° (ENE) 10:48:37 145.880/145.840
EO-88 24 Sep 10:47:17 10:50:58 86° 103° (ESE) 10:54:36 145.990 - 145.960
ESTCUBE 1 24 Sep 11:15:48 11:18:35 16° 92° (E) 11:21:20 437.505/2401.250
NANOSAT C BR1 24 Sep 11:17:00 11:20:36 28° 70° (ENE) 11:24:13 145.865
Max Valier Satellite 24 Sep 11:22:24 11:25:29 25° 290° (WNW) 11:28:33 145.860
YUBILEINY 24 Sep 11:27:25 11:34:52 33° 84° (E) 11:42:18 435.215
LO-87 24 Sep 11:41:10 11:44:40 45° 99° (E) 11:48:08 145.935 - 145.965
DUCHIFAT 1 24 Sep 11:44:29 11:48:31 51° 73° (ENE) 11:52:36 145.980
O/OREOS (USA 219) 24 Sep 11:55:25 11:59:53 48° 64° (ENE) 12:04:21 437.305
RS-15 24 Sep 11:56:17 12:06:07 27° 25° (NNE) 12:15:32 29.354- 29.394
POLYITAN 1 24 Sep 11:59:17 12:03:28 82° 255° (WSW) 12:07:44 437.675
M-CUBED/EXP-1 PRIME 24 Sep 12:01:11 12:05:16 45° 69° (ENE) 12:09:05 437.505
EO-79 24 Sep 12:03:22 12:07:33 73° 258° (WSW) 12:11:47 145.935-145.965
AIST 2D 24 Sep 12:05:20 12:08:04 21° 265° (W) 12:10:48 435.315
BUGSAT 1 24 Sep 12:17:10 12:20:40 29° 70° (ENE) 12:24:13 437.445
QB50P2 24 Sep 12:17:30 12:21:31 44° 261° (W) 12:25:35 145.880/145.840
Gurwin Techsat 1B 24 Sep 12:20:57 12:23:39 14° 60° (ENE) 12:26:21 435.225
Oscar 19 24 Sep 12:27:52 12:31:56 24° 65° (ENE) 12:36:00 437.125/150
NO-84 24 Sep 12:40:16 12:44:11 65° 135° (SE) 12:47:50 435.350 FM
ESTCUBE 1 24 Sep 12:51:18 12:55:35 45° 288° (WNW) 12:59:51 437.505/2401.250
NANOSAT C BR1 24 Sep 12:52:58 12:56:16 22° 265° (W) 12:59:36 145.865
AO-7 24 Sep 12:57:11 12:59:56 12° 44° (NE) 13:02:40 .
SPROUT 24 Sep 13:09:08 13:13:25 71° 102° (ESE) 13:17:42 437.525
VELOX 1 24 Sep 13:16:20 13:20:41 59° 101° (E) 13:25:00 145.980
LO-87 24 Sep 13:16:35 13:17:39 11° 295° (WNW) 13:18:43 145.935 - 145.965
DUCHIFAT 1 24 Sep 13:22:42 13:24:28 12° 269° (W) 13:26:15 145.980
YUBILEINY 24 Sep 13:22:51 13:31:15 52° 284° (WNW) 13:39:42 435.215
O/OREOS (USA 219) 24 Sep 13:36:06 13:38:51 16° 261° (W) 13:41:36 437.305
M-CUBED/EXP-1 PRIME 24 Sep 13:37:18 13:39:46 15° 261° (W) 13:42:10 437.505
SO-50 24 Sep 13:52:49 13:57:16 69° 120° (ESE) 14:01:45 436.795
BUGSAT 1 24 Sep 13:53:06 13:56:03 20° 266° (W) 13:59:02 437.445
Gurwin Techsat 1B 24 Sep 13:57:36 14:02:54 77° 256° (WSW) 14:08:15 435.225
Oscar 19 24 Sep 14:06:04 14:10:58 42° 261° (W) 14:15:54 437.125/150
RS-15 24 Sep 14:09:15 14:21:17 71° 54° (NE) 14:32:36 29.354- 29.394
UKube-1 24 Sep 14:13:42 14:17:46 39° 99° (E) 14:21:48 .
NO-84 24 Sep 14:19:06 14:21:51 19° 330° (NNW) 14:24:27 435.350 FM
DX 1 24 Sep 14:22:19 14:26:40 81° 102° (ESE) 14:31:00 434.975-435.025
50 SAT 24 Sep 14:28:08 14:31:20 46° 285° (WNW) 14:34:31 437.505
PCSat 24 Sep 14:34:07 14:39:30 74° 116° (ESE) 14:44:57 145.827
AO-7 24 Sep 14:42:49 14:50:51 55° 65° (ENE) 14:58:52 .
SPROUT 24 Sep 14:47:44 14:48:42 11° 298° (WNW) 14:49:40 437.525
ITUPSAT 1 24 Sep 14:51:30 14:53:22 12° 90° (E) 14:55:14 437.325
VELOX 1 24 Sep 14:54:34 14:56:37 13° 297° (WNW) 14:58:40 145.980
ITAMSAT 1 24 Sep 15:12:39 15:17:40 55° 72° (ENE) 15:22:44 435.822/435.867
BEESAT 24 Sep 15:25:38 15:29:47 29° 96° (E) 15:33:55 436.000
SO-50 24 Sep 15:35:24 15:38:12 16° 318° (NW) 15:41:01 436.795
MOZHAYETS 4 24 Sep 15:48:21 15:52:53 51° 99° (E) 15:57:22
UKube-1 24 Sep 15:50:34 15:53:28 18° 295° (WNW) 15:56:21 .
CUBESAT XI-V 24 Sep 16:17:56 16:21:30 22° 94° (E) 16:25:02 437.345
PCSat 24 Sep 16:19:46 16:23:29 18° 315° (NW) 16:27:13 145.827
RS-15 24 Sep 16:22:53 16:32:41 33° 256° (WSW) 16:42:06 29.354- 29.394
ITUPSAT 1 24 Sep 16:26:50 16:31:38 68° 286° (WNW) 16:36:24 437.325
AO-7 24 Sep 16:36:35 16:43:51 33° 263° (W) 16:51:09 .
DOVE 4 24 Sep 16:39:02 16:42:56 32° 72° (ENE) 16:46:43 437.250
ITAMSAT 1 24 Sep 16:54:09 16:57:27 17° 268° (W) 17:00:47 435.822/435.867
XW-2D 24 Sep 17:00:06 17:02:01 14° 66° (ENE) 17:03:57 145.860 - 145.880
HO-68 24 Sep 17:00:06 17:01:52 11° 50° (NE) 17:03:39 435.675
BEESAT 24 Sep 17:03:21 17:07:28 29° 292° (WNW) 17:11:34 436.000
CUTE-I 24 Sep 17:09:16 17:13:11 21° 64° (ENE) 17:17:07 437.470
XW-2F 24 Sep 17:11:01 17:13:28 17° 67° (ENE) 17:15:56 145.980 - 146.000
XW-2B 24 Sep 17:11:43 17:14:19 18° 68° (ENE) 17:16:56 145.730 - 145.750
MOZHAYETS 4 24 Sep 17:26:44 17:29:35 16° 296° (WNW) 17:32:25
NUDT-PHONESAT 24 Sep 17:30:21 17:33:11 21° 69° (ENE) 17:36:01 437.300
XW-2C 24 Sep 17:32:11 17:35:36 31° 71° (ENE) 17:39:02 145.795 - 145.815
KKS-1 24 Sep 17:37:40 17:42:01 51° 100° (E) 17:46:20 437.445
LilacSat-2 24 Sep 17:45:24 17:49:08 49° 74° (ENE) 17:52:54 437.200
CUBESAT XI-V 24 Sep 17:54:44 17:58:56 35° 290° (WNW) 18:03:05 437.345
STARS 24 Sep 17:59:10 18:03:12 34° 98° (E) 18:07:13 437.465
KAITUO 1B 24 Sep 17:59:37 18:03:17 49° 74° (ENE) 18:06:58 145.475/437.950
BEESAT 3 24 Sep 18:17:01 18:18:23 11° 108° (ESE) 18:19:46 437.485
DOVE 4 24 Sep 18:17:22 18:20:40 20° 265° (W) 18:23:52 437.250
CUTE 1.7 + AOD 2 24 Sep 18:29:55 18:33:38 30° 70° (ENE) 18:37:22 437.475
XW-2D 24 Sep 18:32:09 18:35:48 42° 262° (W) 18:39:29 145.860 - 145.880
HO-68 24 Sep 18:41:09 18:48:07 60° 69° (ENE) 18:55:08 435.675
XW-2F 24 Sep 18:43:50 18:47:18 33° 263° (W) 18:50:48 145.980 - 146.000
XW-2B 24 Sep 18:44:50 18:48:15 31° 263° (W) 18:51:42 145.730 - 145.750
CUTE-I 24 Sep 18:47:45 18:52:51 49° 260° (W) 18:58:00 437.470
Tancredo 1 24 Sep 18:48:28 18:51:05 52° 139° (SE) 18:53:43 437.200
XW-2A 24 Sep 19:00:37 19:03:20 23° 71° (ENE) 19:06:07 145.665 - 145.685
NUDT-PHONESAT 24 Sep 19:03:47 19:06:54 25° 265° (W) 19:10:01 437.300
XW-2C 24 Sep 19:07:16 19:09:49 17° 267° (W) 19:12:24 145.795 - 145.815
CUBEBUG 2 24 Sep 19:10:17 19:14:20 45° 73° (ENE) 19:18:32 437.445
NO-84 24 Sep 19:15:05 19:17:43 25° 34° (NE) 19:20:12 435.350 FM
UWE-3 24 Sep 19:15:08 19:18:53 30° 70° (ENE) 19:22:44 435.000/436.395/437.385
KKS-1 24 Sep 19:15:33 19:18:08 15° 296° (WNW) 19:20:42 437.445
AO-85 24 Sep 19:20:18 19:22:54 17° 111° (ESE) 19:25:30 145.980
LilacSat-2 24 Sep 19:22:33 19:23:40 11° 269° (W) 19:24:47 437.200
SEEDS 24 Sep 19:34:40 19:38:55 81° 259° (W) 19:43:10 437.485
STARS 24 Sep 19:36:00 19:39:18 21° 293° (WNW) 19:42:36 437.465
KAITUO 1B 24 Sep 19:36:54 19:37:32 10° 269° (W) 19:38:11 145.475/437.950
ISS 24 Sep 19:43:50 19:46:37 26° 134° (SE) 19:49:26 437.550
STRAND 1 24 Sep 19:50:52 19:55:46 43° 99° (E) 20:00:39 437.568
BEESAT 3 24 Sep 19:51:27 19:55:24 59° 304° (WNW) 19:59:25 437.485
AAUSAT CUBESAT 2 24 Sep 19:53:53 19:58:02 72° 76° (ENE) 20:02:11 437.432
Oscar 11 24 Sep 19:54:22 19:58:02 27° 70° (ENE) 20:01:45 .
AO-73 24 Sep 19:56:10 20:00:13 40° 72° (ENE) 20:04:23 145.935
ZACube-1 24 Sep 19:59:36 20:03:47 50° 73° (ENE) 20:08:05 437.345
BEESAT 2 24 Sep 20:01:34 20:05:27 51° 118° (ESE) 20:09:24 435.950
CUTE 1.7 + AOD 2 24 Sep 20:06:05 20:09:27 22° 266° (W) 20:12:50 437.475
nSIGHT-1 24 Sep 20:20:28 20:23:40 75° 142° (SE) 20:26:54 .
Tancredo 1 24 Sep 20:23:53 20:25:44 17° 336° (NNW) 20:27:36 437.200
HO-68 24 Sep 20:30:34 20:36:13 25° 266° (W) 20:41:56 435.675
XW-2A 24 Sep 20:33:38 20:36:01 18° 266° (W) 20:38:24 145.665 - 145.685
CUBEBUG 2 24 Sep 20:48:51 20:51:13 15° 269° (W) 20:53:38 437.445
UWE-3 24 Sep 20:51:55 20:55:20 23° 266° (W) 20:58:50 435.000/436.395/437.385
NO-84 24 Sep 20:52:36 20:54:57 22° 232° (SW) 20:57:13 435.350 FM
AO-85 24 Sep 20:59:23 21:02:59 35° 308° (NW) 21:06:39 145.980
FO-29 24 Sep 21:07:46 21:12:40 30° 97° (E) 21:18:00 435.910
DELFI C3 24 Sep 21:11:34 21:15:17 41° 73° (ENE) 21:19:01 145.870
ISS 24 Sep 21:20:00 21:23:01 34° 330° (NNW) 21:26:03 437.550
EO-88 24 Sep 21:24:05 21:27:20 30° 72° (ENE) 21:30:34 145.990 - 145.960
Oscar 11 24 Sep 21:30:31 21:34:06 25° 265° (W) 21:37:44 .
STRAND 1 24 Sep 21:30:41 21:34:39 23° 295° (WNW) 21:38:36 437.568
AO-73 24 Sep 21:33:45 21:36:37 17° 268° (W) 21:39:33 145.935
UNISAT 6 24 Sep 21:36:54 21:39:53 17° 92° (E) 21:42:51 437.425
ZACube-1 24 Sep 21:38:05 21:40:21 14° 270° (W) 21:42:39 437.345
YUBILEINY 24 Sep 21:39:10 21:43:48 15° 60° (ENE) 21:48:25 435.215
BEESAT 2 24 Sep 21:40:51 21:43:29 17° 315° (NW) 21:46:08 435.950
nSIGHT-1 24 Sep 21:57:55 22:00:19 19° 339° (NNW) 22:02:43 .
Max Valier Satellite 24 Sep 21:59:21 22:03:01 64° 259° (W) 22:06:44 145.860
TIGRISAT 24 Sep 21:59:27 22:03:24 26° 95° (E) 22:07:20 435.000
PRISM 24 Sep 22:11:39 22:14:17 17° 94° (E) 22:16:55 437.425
ESTCUBE 1 24 Sep 22:15:07 22:17:36 15° 64° (ENE) 22:20:05 437.505/2401.250
LO-87 24 Sep 22:17:18 22:19:34 16° 68° (ENE) 22:21:51 145.935 - 145.965
SO-50 24 Sep 22:24:36 22:29:04 49° 54° (NE) 22:33:34 436.795
DELFI C3 24 Sep 22:48:15 22:50:13 13° 268° (W) 22:52:12 145.870
FO-29 24 Sep 22:52:43 22:57:46 37° 290° (WNW) 23:03:19 435.910
EO-88 24 Sep 22:58:45 23:01:02 16° 267° (W) 23:03:19 145.990 - 145.960
ISS 24 Sep 22:58:50 23:00:15 12° 350° (N) 23:01:42 437.550
UNISAT 6 24 Sep 23:12:17 23:16:48 48° 287° (WNW) 23:21:18 437.425
PCSat 24 Sep 23:22:47 23:28:04 50° 57° (ENE) 23:33:19 145.827
AIST 2D 24 Sep 23:30:17 23:33:20 27° 96° (E) 23:36:21 435.315
YUBILEINY 24 Sep 23:33:23 23:42:10 78° 82° (E) 23:50:56 435.215
TIGRISAT 24 Sep 23:35:55 23:40:01 31° 291° (WNW) 23:44:08 435.000
Tancredo 1 24 Sep 23:35:58 23:36:37 11° 16° (NNE) 23:37:16 437.200
nSIGHT-1 24 Sep 23:36:59 23:37:39 10° 359° (N) 23:38:19 .
POLYITAN 1 24 Sep 23:45:44 23:48:34 17° 93° (E) 23:51:24 437.675
PRISM 24 Sep 23:45:56 23:49:39 35° 289° (WNW) 23:53:22 437.425
EO-79 24 Sep 23:49:27 23:52:30 19° 94° (E) 23:55:31 145.935-145.965
ESTCUBE 1 24 Sep 23:49:28 23:53:55 55° 260° (W) 23:58:23 437.505/2401.250
LO-87 24 Sep 23:49:43 23:52:45 27° 263° (W) 23:55:49 145.935 - 145.965
SPROUT 25 Sep 00:01:21 00:05:24 46° 73° (ENE) 00:09:29 437.525
QB50P2 25 Sep 00:03:00 00:06:46 29° 97° (E) 00:10:30 145.880/145.840
SO-50 25 Sep 00:06:02 00:09:09 18° 250° (WSW) 00:12:17 436.795
VELOX 1 25 Sep 00:12:32 00:16:44 46° 72° (ENE) 00:20:57 145.980
ISS 25 Sep 00:36:26 00:37:53 12° 10° (N) 00:39:20 437.550
NANOSAT C BR1 25 Sep 00:36:40 00:40:53 58° 101° (E) 00:45:05 145.865
50 SAT 25 Sep 00:56:45 00:59:53 41° 74° (ENE) 01:03:01 437.505
AIST 2D 25 Sep 01:04:04 01:06:17 16° 292° (WNW) 01:08:30 435.315
DUCHIFAT 1 25 Sep 01:04:18 01:08:34 77° 283° (WNW) 01:12:48 145.980
PCSat 25 Sep 01:07:00 01:11:04 22° 254° (WSW) 01:15:08 145.827
UKube-1 25 Sep 01:07:21 01:11:07 31° 69° (ENE) 01:14:55 .
Tancredo 1 25 Sep 01:08:59 01:11:36 48° 34° (NE) 01:14:13 437.200
nSIGHT-1 25 Sep 01:12:52 01:15:03 17° 19° (NNE) 01:17:14 .
M-CUBED/EXP-1 PRIME 25 Sep 01:14:50 01:17:42 28° 102° (ESE) 01:20:33 437.505
DX 1 25 Sep 01:16:42 01:20:58 62° 75° (ENE) 01:25:16 434.975-435.025
POLYITAN 1 25 Sep 01:20:29 01:24:29 39° 289° (WNW) 01:28:28 437.675
EO-79 25 Sep 01:24:26 01:28:20 35° 289° (WNW) 01:32:13 145.935-145.965
YUBILEINY 25 Sep 01:31:57 01:37:54 21° 281° (W) 01:43:54 435.215
BUGSAT 1 25 Sep 01:33:53 01:38:03 58° 100° (E) 01:42:13 437.445
QB50P2 25 Sep 01:39:00 01:42:23 23° 292° (WNW) 01:45:45 145.880/145.840
SPROUT 25 Sep 01:39:19 01:41:32 14° 268° (W) 01:43:46 437.525
VELOX 1 25 Sep 01:50:53 01:53:24 15° 268° (W) 01:55:56 145.980
ITUPSAT 1 25 Sep 01:57:29 02:00:01 14° 62° (ENE) 02:02:33 437.325
O/OREOS (USA 219) 25 Sep 02:06:42 02:11:09 66° 108° (ESE) 02:15:39 437.305
ISS 25 Sep 02:12:04 02:15:08 34° 30° (NNE) 02:18:11 437.550
NANOSAT C BR1 25 Sep 02:14:14 02:16:05 13° 296° (WNW) 02:17:55 145.865
Gurwin Techsat 1B 25 Sep 02:14:40 02:19:46 45° 99° (E) 02:24:49 435.225
Oscar 19 25 Sep 02:17:59 02:23:09 72° 103° (ESE) 02:28:16 437.125/150
BEESAT 25 Sep 02:31:12 02:35:22 31° 68° (ENE) 02:39:33 436.000
UKube-1 25 Sep 02:43:48 02:47:08 22° 265° (W) 02:50:29 .
Tancredo 1 25 Sep 02:44:45 02:45:45 12° 230° (SW) 02:46:45 437.200
M-CUBED/EXP-1 PRIME 25 Sep 02:50:09 02:51:55 14° 299° (WNW) 02:53:39 437.505
